QFA596 YSSY-YBBN

Flight info

Callsign QFA596
Flight time N/A
Altitude 35000
Route TESAT H252 OLSEM Y193 BANDA H252 BN
Aircraft B738/M-SDE2E3FGHIRWXY/LB1

Departure

Time 2026-04-26 07:01
Airport Sydney Kingsford Smith International Airport (YSSY)

Arrival

Time N/A
Airport Brisbane International Airport (YBBN)
Time Latitude Longitude Altitude Speed Heading
2026-04-26 06:16 -33.93145 151.17801 22 ft 0 kts 189°
2026-04-26 06:33 -33.93144 151.17801 22 ft 0 kts 191°
2026-04-26 06:33 -33.93146 151.17799 22 ft 0 kts 203°
2026-04-26 06:35 -33.93140 151.17802 22 ft 2 kts 189°
2026-04-26 06:35 -33.93125 151.17804 22 ft 2 kts 191°
2026-04-26 06:35 -33.93111 151.17809 22 ft 2 kts 191°
2026-04-26 06:36 -33.93096 151.17812 22 ft 2 kts 191°
2026-04-26 06:36 -33.93082 151.17815 22 ft 1 kts 191°
2026-04-26 06:36 -33.93075 151.17816 22 ft 0 kts 234°
2026-04-26 06:36 -33.93073 151.17822 22 ft 0 kts 280°
2026-04-26 06:37 -33.93075 151.17830 22 ft 1 kts 284°
2026-04-26 06:40 -33.93035 151.17708 22 ft 30 kts 291°
2026-04-26 06:40 -33.93039 151.17551 21 ft 15 kts 222°
2026-04-26 06:40 -33.93162 151.17541 19 ft 27 kts 171°
2026-04-26 06:41 -33.93350 151.17584 15 ft 28 kts 168°
2026-04-26 06:41 -33.93552 151.17604 10 ft 27 kts 169°
2026-04-26 06:41 -33.93746 151.17685 10 ft 29 kts 165°
2026-04-26 06:41 -33.93931 151.17787 11 ft 30 kts 166°
2026-04-26 06:42 -33.94120 151.17836 15 ft 25 kts 168°
2026-04-26 06:42 -33.94289 151.17879 21 ft 25 kts 168°
2026-04-26 06:42 -33.94433 151.17908 25 ft 16 kts 187°
2026-04-26 06:42 -33.94537 151.17888 25 ft 14 kts 172°
2026-04-26 06:43 -33.94626 151.17911 26 ft 12 kts 168°
2026-04-26 06:43 -33.94725 151.17937 27 ft 14 kts 168°
2026-04-26 06:43 -33.94814 151.17960 28 ft 11 kts 167°
2026-04-26 06:43 -33.94887 151.17978 27 ft 0 kts 168°
2026-04-26 06:44 -33.94891 151.17979 27 ft 1 kts 168°
2026-04-26 06:46 -33.94921 151.17987 26 ft 11 kts 168°
2026-04-26 06:46 -33.94999 151.18008 25 ft 10 kts 167°
2026-04-26 06:46 -33.95023 151.18015 24 ft 0 kts 167°
2026-04-26 06:46 -33.95045 151.18021 24 ft 8 kts 164°
2026-04-26 06:47 -33.95097 151.18072 22 ft 10 kts 110°
2026-04-26 06:47 -33.95093 151.18162 21 ft 11 kts 78°
2026-04-26 06:47 -33.95081 151.18222 21 ft 0 kts 77°
2026-04-26 06:48 -33.95077 151.18248 20 ft 6 kts 78°
2026-04-26 06:48 -33.95067 151.18300 20 ft 5 kts 78°
2026-04-26 06:48 -33.95066 151.18308 20 ft 1 kts 78°
2026-04-26 06:49 -33.95063 151.18321 20 ft 2 kts 77°
2026-04-26 06:49 -33.95047 151.18417 19 ft 16 kts 82°
2026-04-26 06:49 -33.95100 151.18526 16 ft 18 kts 142°
2026-04-26 06:49 -33.95182 151.18617 15 ft 14 kts 138°
2026-04-26 06:50 -33.95250 151.18692 13 ft 11 kts 146°
2026-04-26 06:50 -33.95331 151.18726 13 ft 17 kts 167°
2026-04-26 06:50 -33.95465 151.18761 12 ft 21 kts 167°
2026-04-26 06:50 -33.95624 151.18802 10 ft 21 kts 168°
2026-04-26 06:51 -33.95758 151.18837 9 ft 20 kts 168°
2026-04-26 06:51 -33.96039 151.18909 9 ft 18 kts 168°
2026-04-26 06:51 -33.96095 151.18924 9 ft 0 kts 167°
2026-04-26 06:52 -33.96096 151.18924 9 ft 0 kts 167°
2026-04-26 06:52 -33.96201 151.18951 9 ft 22 kts 168°
2026-04-26 06:52 -33.96355 151.18991 10 ft 32 kts 168°
2026-04-26 06:52 -33.96570 151.19047 12 ft 29 kts 167°
2026-04-26 06:53 -33.96734 151.19075 13 ft 20 kts 185°
2026-04-26 06:53 -33.96863 151.19078 13 ft 15 kts 166°
2026-04-26 06:53 -33.96961 151.19104 13 ft 13 kts 168°
2026-04-26 06:53 -33.97031 151.19122 13 ft 0 kts 167°
2026-04-26 06:56 -33.97057 151.19128 13 ft 11 kts 169°
2026-04-26 06:56 -33.97126 151.19180 13 ft 12 kts 112°
2026-04-26 06:56 -33.97124 151.19257 13 ft 5 kts 76°
2026-04-26 06:57 -33.97123 151.19258 13 ft 0 kts 76°
2026-04-26 06:59 -33.97111 151.19310 13 ft 15 kts 70°
2026-04-26 06:59 -33.97049 151.19371 13 ft 0 kts 346°
2026-04-26 07:00 -33.96968 151.19350 13 ft 44 kts 348°
2026-04-26 07:01 -33.96336 151.19186 11 ft 139 kts 349°
2026-04-26 07:01 -33.95168 151.18870 357 ft 192 kts 349°
2026-04-26 07:01 -33.93877 151.18465 1276 ft 203 kts 349°
2026-04-26 07:01 -33.92563 151.18188 2043 ft 190 kts 359°
2026-04-26 07:02 -33.91163 151.18480 2798 ft 215 kts 21°
2026-04-26 07:02 -33.89788 151.19479 2981 ft 241 kts 40°
2026-04-26 07:02 -33.88659 151.20863 3896 ft 237 kts 47°
2026-04-26 07:02 -33.87537 151.22342 5104 ft 255 kts 46°
2026-04-26 07:03 -33.86230 151.23895 5811 ft 264 kts 43°
2026-04-26 07:03 -33.84840 151.25430 5887 ft 281 kts 42°
2026-04-26 07:03 -33.83453 151.27063 5728 ft 276 kts 52°
2026-04-26 07:03 -33.82600 151.29088 5564 ft 269 kts 73°
2026-04-26 07:04 -33.82153 151.31250 5318 ft 264 kts 70°
2026-04-26 07:04 -33.81254 151.33131 5200 ft 260 kts 49°
2026-04-26 07:04 -33.79999 151.34721 5202 ft 265 kts 45°
2026-04-26 07:04 -33.78691 151.36473 5880 ft 297 kts 51°
2026-04-26 07:05 -33.77412 151.38496 6857 ft 324 kts 54°
2026-04-26 07:05 -33.76080 151.40801 7768 ft 352 kts 56°
2026-04-26 07:05 -33.74658 151.43324 8734 ft 377 kts 56°
2026-04-26 07:05 -33.73164 151.45966 10062 ft 389 kts 56°
2026-04-26 07:06 -33.71637 151.48640 11427 ft 397 kts 56°
2026-04-26 07:06 -33.70070 151.51361 12748 ft 404 kts 56°
2026-04-26 07:06 -33.68461 151.54144 14079 ft 410 kts 56°
2026-04-26 07:06 -33.66831 151.56932 15311 ft 417 kts 55°
2026-04-26 07:07 -33.65059 151.59666 16494 ft 423 kts 50°
2026-04-26 07:07 -33.62955 151.62155 17642 ft 429 kts 41°
2026-04-26 07:07 -33.60558 151.64334 18709 ft 436 kts 36°
2026-04-26 07:07 -33.58000 151.66332 19730 ft 444 kts 33°
2026-04-26 07:08 -33.55383 151.68259 20682 ft 451 kts 32°
2026-04-26 07:08 -33.52686 151.70233 21690 ft 456 kts 32°
2026-04-26 07:08 -33.49884 151.72052 22574 ft 465 kts 26°
2026-04-26 07:08 -33.46865 151.73515 23513 ft 471 kts 20°
2026-04-26 07:09 -33.43717 151.74715 24403 ft 478 kts 17°
2026-04-26 07:09 -33.40518 151.75766 25223 ft 485 kts 15°
2026-04-26 07:09 -33.37216 151.76776 26039 ft 492 kts 15°
2026-04-26 07:09 -33.33910 151.77766 26931 ft 495 kts 15°
2026-04-26 07:10 -33.23859 151.80846 28208 ft 494 kts 15°
2026-04-26 07:11 -33.17250 151.82942 28471 ft 489 kts 16°
2026-04-26 07:11 -33.13990 151.83989 29107 ft 485 kts 16°
2026-04-26 07:11 -33.10709 151.85043 29919 ft 487 kts 16°
2026-04-26 07:11 -33.07471 151.86085 30796 ft 487 kts 16°
2026-04-26 07:12 -33.04208 151.87135 31990 ft 480 kts 16°
2026-04-26 07:12 -33.01018 151.88159 32994 ft 475 kts 16°
2026-04-26 07:12 -32.97875 151.89168 33861 ft 473 kts 15°
2026-04-26 07:12 -32.94723 151.90178 34853 ft 469 kts 15°
2026-04-26 07:13 -32.91540 151.91199 35219 ft 478 kts 15°
2026-04-26 07:13 -32.85131 151.93248 35217 ft 472 kts 15°
2026-04-26 07:14 -32.78782 151.95274 35215 ft 476 kts 15°
2026-04-26 07:14 -32.72380 151.97316 35213 ft 480 kts 15°
2026-04-26 07:15 -32.65903 151.99379 35215 ft 479 kts 15°
2026-04-26 07:15 -32.59482 152.01421 35210 ft 479 kts 15°
2026-04-26 07:16 -32.53038 152.03465 35208 ft 479 kts 15°
2026-04-26 07:16 -32.46592 152.05508 35207 ft 480 kts 15°
2026-04-26 07:17 -32.40140 152.07552 35207 ft 481 kts 15°
2026-04-26 07:17 -32.33671 152.09595 35206 ft 481 kts 15°
2026-04-26 07:18 -32.27185 152.11641 35206 ft 482 kts 15°
2026-04-26 07:18 -32.23947 152.12662 35420 ft 484 kts 15°
2026-04-26 07:18 -32.20708 152.13683 36313 ft 479 kts 15°
2026-04-26 07:18 -32.17510 152.14688 37094 ft 478 kts 15°
2026-04-26 07:19 -32.14286 152.15703 37204 ft 485 kts 15°
2026-04-26 07:19 -32.07824 152.17731 37202 ft 479 kts 15°
2026-04-26 07:20 -32.01392 152.19750 37203 ft 476 kts 15°
2026-04-26 07:20 -31.95006 152.21748 37212 ft 476 kts 15°
2026-04-26 07:21 -31.88554 152.23767 37215 ft 478 kts 15°
2026-04-26 07:21 -31.82133 152.25772 37213 ft 479 kts 15°
2026-04-26 07:22 -31.75701 152.27780 37220 ft 478 kts 15°
2026-04-26 07:22 -31.69244 152.29790 37218 ft 480 kts 15°
2026-04-26 07:23 -31.62794 152.31796 37221 ft 481 kts 15°
2026-04-26 07:23 -31.56307 152.33812 37219 ft 482 kts 15°
2026-04-26 07:24 -31.49795 152.35831 37223 ft 482 kts 15°
2026-04-26 07:24 -31.43344 152.37828 37224 ft 483 kts 14°
2026-04-26 07:25 -31.36833 152.39841 37221 ft 483 kts 14°